| time (UTC) | temp F | wind direction | speed knots | gust knots | rain 1hr in | rain 24hr in | rain mn in | humidity % | barometer mb |
| 20260901231025 | 80 | 226 | 1.7 | 6.1 | 0.00 | 0.00 | 0.00 | 34 | 1011.6 |
| 20260901230526 | 80 | 193 | 0.9 | 3.5 | 0.00 | 0.00 | 0.00 | 35 | 1011.7 |
| 20260901230056 | 80 | 227 | 0.9 | 3.5 | 0.00 | 0.00 | 0.00 | 35 | 1011.8 |
| 20260901225524 | 80 | 228 | 0.0 | 3.5 | 0.00 | 0.00 | 0.00 | 37 | 1011.8 |
| 20260901225024 | 81 | 225 | 0.9 | 5.2 | 0.00 | 0.00 | 0.00 | 33 | 1011.6 |
| 20260901224546 | 81 | 176 | 2.6 | 5.2 | 0.00 | 0.00 | 0.00 | 34 | 1011.7 |
| 20260901224024 | 81 | 233 | 1.7 | 4.3 | 0.00 | 0.00 | 0.00 | 38 | 1011.6 |
| 20260901223524 | 81 | 220 | 1.7 | 4.3 | 0.00 | 0.00 | 0.00 | 33 | 1011.6 |
| 20260901223047 | 81 | 187 | 0.9 | 7.0 | 0.00 | 0.00 | 0.00 | 35 | 1011.6 |
| 20260901222525 | 82 | 235 | 3.5 | 7.0 | 0.00 | 0.00 | 0.00 | 31 | 1011.6 |
| 20260901222024 | 82 | 213 | 1.7 | 7.0 | 0.00 | 0.00 | 0.00 | 34 | 1011.6 |
| 20260901221608 | 83 | 233 | 1.7 | 7.0 | 0.00 | 0.00 | 0.00 | 32 | 1011.6 |
| 20260901221028 | 83 | 185 | 0.9 | 6.1 | 0.00 | 0.00 | 0.00 | 31 | 1011.6 |
| 20260901220528 | 84 | 173 | 2.6 | 6.1 | 0.00 | 0.00 | 0.00 | 29 | 1011.6 |
| 20260901220115 | 84 | 0 | 0.9 | 5.2 | 0.00 | 0.00 | 0.00 | 30 | 1011.6 |
| 20260901215527 | 84 | 204 | 2.6 | 5.2 | 0.00 | 0.00 | 0.00 | 30 | 1011.7 |
| 20260901215025 | 84 | 0 | 0.0 | 6.1 | 0.00 | 0.00 | 0.00 | 28 | 1011.7 |
| 20260901214550 | 84 | 218 | 0.9 | 6.1 | 0.00 | 0.00 | 0.00 | 29 | 1011.8 |
| 20260901214028 | 84 | 186 | 1.7 | 5.2 | 0.00 | 0.00 | 0.00 | 33 | 1011.9 |
| 20260901213525 | 84 | 163 | 0.9 | 2.6 | 0.00 | 0.00 | 0.00 | 35 | 1011.9 |
| 20260901213105 | 84 | 0 | 0.9 | 3.5 | 0.00 | 0.00 | 0.00 | 37 | 1011.9 |
| 20260901212527 | 83 | 0 | 0.9 | 3.5 | 0.00 | 0.00 | 0.00 | 35 | 1012.1 |
| 20260901212029 | 83 | 0 | 0.9 | 5.2 | 0.00 | 0.00 | 0.00 | 32 | 1012.0 |
| 20260901211546 | 83 | 0 | 2.6 | 5.2 | 0.00 | 0.00 | 0.00 | 31 | 1012.0 |
| 20260901211027 | 82 | 279 | 2.6 | 7.0 | 0.00 | 0.00 | 0.00 | 30 | 1012.1 |
| 20260901210530 | 82 | 203 | 0.9 | 7.0 | 0.00 | 0.00 | 0.00 | 33 | 1012.2 |
| 20260901210044 | 82 | 168 | 2.6 | 7.0 | 0.00 | 0.00 | 0.00 | 32 | 1012.2 |
| 20260901205527 | 82 | 193 | 0.9 | 3.5 | 0.00 | 0.00 | 0.00 | 30 | 1012.1 |
| 20260901205029 | 82 | 326 | 0.9 | 4.3 | 0.00 | 0.00 | 0.00 | 32 | 1012.3 |
| 20260901204601 | 82 | 47 | 1.7 | 4.3 | 0.00 | 0.00 | 0.00 | 30 | 1012.5 |
| 20260901204027 | 82 | 0 | 0.0 | 2.6 | 0.00 | 0.00 | 0.00 | 32 | 1012.6 |
| 20260901203528 | 81 | 193 | 0.9 | 6.1 | 0.00 | 0.00 | 0.00 | 32 | 1012.5 |
| 20260901203045 | 81 | 131 | 0.9 | 6.1 | 0.00 | 0.00 | 0.00 | 35 | 1012.7 |
| 20260901202527 | 81 | 200 | 1.7 | 4.3 | 0.00 | 0.00 | 0.00 | 34 | 1012.8 |
| 20260901202028 | 81 | 290 | 1.7 | 4.3 | 0.00 | 0.00 | 0.00 | 33 | 1012.9 |
| 20260901201546 | 81 | 37 | 0.9 | 4.3 | 0.00 | 0.00 | 0.00 | 37 | 1013.0 |
| 20260901201027 | 81 | 75 | 0.9 | 4.3 | 0.00 | 0.00 | 0.00 | 37 | 1013.0 |
| 20260901200530 | 81 | 124 | 0.9 | 4.3 | 0.00 | 0.00 | 0.00 | 34 | 1013.1 |
| 20260901200114 | 81 | 210 | 0.9 | 4.3 | 0.00 | 0.00 | 0.00 | 36 | 1013.1 |
| 20260901195524 | 80 | 214 | 0.9 | 4.3 | 0.00 | 0.00 | 0.00 | 35 | 1013.1 |
| 20260901195026 | 80 | 217 | 2.6 | 4.3 | 0.00 | 0.00 | 0.00 | 34 | 1013.1 |
| 20260901194606 | 80 | 202 | 1.7 | 7.0 | 0.00 | 0.00 | 0.00 | 37 | 1013.1 |
| 20260901194030 | 80 | 0 | 1.7 | 7.0 | 0.00 | 0.00 | 0.00 | 35 | 1013.1 |
| 20260901193528 | 80 | 161 | 1.7 | 4.3 | 0.00 | 0.00 | 0.00 | 44 | 1013.2 |
| 20260901193050 | 80 | 148 | 1.7 | 5.2 | 0.00 | 0.00 | 0.00 | 39 | 1013.3 |
| 20260901192530 | 79 | 261 | 2.6 | 5.2 | 0.00 | 0.00 | 0.00 | 41 | 1013.2 |
| 20260901192026 | 79 | 197 | 0.9 | 5.2 | 0.00 | 0.00 | 0.00 | 41 | 1013.3 |
| 20260901191628 | 79 | 249 | 1.7 | 4.3 | 0.00 | 0.00 | 0.00 | 40 | 1013.4 |
| 20260901191025 | 79 | 185 | 1.7 | 6.1 | 0.00 | 0.00 | 0.00 | 39 | 1013.5 |
| 20260901190525 | 79 | 184 | 1.7 | 6.1 | 0.00 | 0.00 | 0.00 | 40 | 1013.6 |
| 20260901190057 | 79 | 207 | 2.6 | 5.2 | 0.00 | 0.00 | 0.00 | 43 | 1013.6 |
| 20260901185528 | 78 | 265 | 1.7 | 5.2 | 0.00 | 0.00 | 0.00 | 45 | 1013.7 |
| 20260901185025 | 78 | 271 | 1.7 | 6.1 | 0.00 | 0.00 | 0.00 | 44 | 1013.7 |
| 20260901184544 | 78 | 233 | 2.6 | 6.1 | 0.00 | 0.00 | 0.00 | 47 | 1013.8 |
| 20260901184025 | 78 | 288 | 1.7 | 6.1 | 0.00 | 0.00 | 0.00 | 49 | 1013.7 |
| 20260901183528 | 77 | 265 | 0.9 | 3.5 | 0.00 | 0.00 | 0.00 | 45 | 1013.9 |
| 20260901183056 | 77 | 0 | 0.9 | 3.5 | 0.00 | 0.00 | 0.00 | 47 | 1014.0 |
| 20260901182525 | 77 | 262 | 0.9 | 4.3 | 0.00 | 0.00 | 0.00 | 45 | 1013.9 |
| 20260901182028 | 77 | 274 | 0.9 | 5.2 | 0.00 | 0.00 | 0.00 | 43 | 1014.0 |
| 20260901181600 | 78 | 191 | 1.7 | 7.8 | 0.00 | 0.00 | 0.00 | 42 | 1014.0 |
| 20260901181027 | 78 | 195 | 2.6 | 7.8 | 0.00 | 0.00 | 0.00 | 44 | 1014.1 |
| 20260901180525 | 78 | 221 | 3.5 | 7.8 | 0.00 | 0.00 | 0.00 | 44 | 1014.2 |
| 20260901180045 | 78 | 0 | 3.5 | 7.8 | 0.00 | 0.00 | 0.00 | 43 | 1014.3 |
| 20260901175530 | 78 | 194 | 2.6 | 7.8 | 0.00 | 0.00 | 0.00 | 46 | 1014.3 |
| 20260901175024 | 78 | 146 | 3.5 | 9.6 | 0.00 | 0.00 | 0.00 | 43 | 1014.4 |
| 20260901174546 | 78 | 110 | 4.3 | 9.6 | 0.00 | 0.00 | 0.00 | 46 | 1014.4 |
| 20260901174027 | 77 | 207 | 2.6 | 9.6 | 0.00 | 0.00 | 0.00 | 45 | 1014.3 |
| 20260901173532 | 76 | 231 | 4.3 | 9.6 | 0.00 | 0.00 | 0.00 | 47 | 1014.4 |
| 20260901173052 | 76 | 155 | 4.3 | 8.7 | 0.00 | 0.00 | 0.00 | 46 | 1014.6 |
| 20260901172525 | 75 | 141 | 3.5 | 7.8 | 0.00 | 0.00 | 0.00 | 49 | 1014.6 |
| 20260901172026 | 74 | 131 | 1.7 | 6.1 | 0.00 | 0.00 | 0.00 | 53 | 1014.6 |
| 20260901171558 | 73 | 203 | 0.9 | 3.5 | 0.00 | 0.00 | 0.00 | 47 | 1014.6 |
| 20260901171024 | 72 | 241 | 0.9 | 2.6 | 0.00 | 0.00 | 0.00 | 46 | 1014.7 |
| 20260901170526 | 72 | 278 | 0.9 | 3.5 | 0.00 | 0.00 | 0.00 | 48 | 1014.7 |
| 20260901170057 | 72 | 229 | 0.9 | 3.5 | 0.00 | 0.00 | 0.00 | 46 | 1014.8 |
| 20260901165525 | 71 | 0 | 0.9 | 3.5 | 0.00 | 0.00 | 0.00 | 45 | 1014.7 |
| 20260901165024 | 71 | 198 | 0.9 | 3.5 | 0.00 | 0.00 | 0.00 | 45 | 1014.9 |
| 20260901164546 | 71 | 191 | 0.9 | 3.5 | 0.00 | 0.00 | 0.00 | 43 | 1014.8 |
| 20260901164027 | 71 | 185 | 0.9 | 3.5 | 0.00 | 0.00 | 0.00 | 47 | 1015.0 |
| 20260901163527 | 71 | 225 | 0.0 | 3.5 | 0.00 | 0.00 | 0.00 | 46 | 1015.0 |
| 20260901163054 | 71 | 0 | 0.9 | 4.3 | 0.00 | 0.00 | 0.00 | 41 | 1014.9 |
| 20260901162525 | 71 | 233 | 0.9 | 4.3 | 0.00 | 0.00 | 0.00 | 46 | 1015.0 |
| 20260901162029 | 70 | 161 | 0.9 | 4.3 | 0.00 | 0.00 | 0.00 | 44 | 1015.0 |
| 20260901161552 | 69 | 204 | 1.7 | 4.3 | 0.00 | 0.00 | 0.00 | 42 | 1015.1 |
| 20260901161026 | 69 | 198 | 1.7 | 4.3 | 0.00 | 0.00 | 0.00 | 42 | 1015.0 |
| 20260901160525 | 69 | 224 | 1.7 | 4.3 | 0.00 | 0.00 | 0.00 | 42 | 1015.0 |
| 20260901160105 | 68 | 206 | 0.9 | 3.5 | 0.00 | 0.00 | 0.00 | 43 | 1015.1 |
| 20260901155527 | 68 | 197 | 0.9 | 3.5 | 0.00 | 0.00 | 0.00 | 45 | 1015.2 |
| 20260901155028 | 67 | 255 | 1.7 | 3.5 | 0.00 | 0.00 | 0.00 | 43 | 1015.2 |
| 20260901154545 | 67 | 260 | 0.0 | 1.7 | 0.00 | 0.00 | 0.00 | 42 | 1015.1 |
| 20260901154025 | 67 | 0 | 0.0 | 1.7 | 0.00 | 0.00 | 0.00 | 43 | 1015.2 |
| 20260901153526 | 66 | 0 | 0.0 | 1.7 | 0.00 | 0.00 | 0.00 | 42 | 1015.3 |
| 20260901153058 | 65 | 0 | 0.0 | 0.0 | 0.00 | 0.00 | 0.00 | 49 | 1015.4 |
| 20260901152529 | 64 | 0 | 0.0 | 0.9 | 0.00 | 0.00 | 0.00 | 53 | 1015.3 |
| 20260901152025 | 64 | 0 | 0.0 | 0.9 | 0.00 | 0.00 | 0.00 | 52 | 1015.3 |
| 20260901151546 | 63 | 203 | 0.0 | 1.7 | 0.00 | 0.00 | 0.00 | 53 | 1015.4 |
| 20260901151026 | 62 | 0 | 0.0 | 2.6 | 0.00 | 0.00 | 0.00 | 59 | 1015.3 |
| 20260901150530 | 62 | 203 | 0.9 | 2.6 | 0.00 | 0.00 | 0.00 | 59 | 1015.3 |
| 20260901150058 | 61 | 203 | 1.7 | 2.6 | 0.00 | 0.00 | 0.00 | 54 | 1015.2 |
| 20260901145527 | 61 | 191 | 0.9 | 2.6 | 0.00 | 0.00 | 0.00 | 56 | 1015.2 |
| 20260901145027 | 60 | 0 | 0.0 | 2.6 | 0.00 | 0.00 | 0.00 | 61 | 1015.2 |
| 20260901144549 | 59 | 0 | 0.0 | 2.6 | 0.00 | 0.00 | 0.00 | 59 | 1015.4 |
| 20260901144025 | 59 | 211 | 0.9 | 3.5 | 0.00 | 0.00 | 0.00 | 60 | 1015.5 |
| 20260901143527 | 58 | 212 | 0.9 | 3.5 | 0.00 | 0.00 | 0.00 | 58 | 1015.4 |
| 20260901143107 | 58 | 275 | 1.7 | 2.6 | 0.00 | 0.00 | 0.00 | 58 | 1015.4 |
| 20260901142525 | 57 | 262 | 0.9 | 2.6 | 0.00 | 0.00 | 0.00 | 59 | 1015.4 |
| 20260901142024 | 56 | 272 | 0.0 | 4.3 | 0.00 | 0.00 | 0.00 | 62 | 1015.4 |
| 20260901141545 | 56 | 0 | 0.0 | 4.3 | 0.00 | 0.00 | 0.00 | 64 | 1015.3 |
| 20260901141025 | 55 | 307 | 0.0 | 2.6 | 0.00 | 0.00 | 0.00 | 68 | 1015.3 |
| 20260901140526 | 54 | 0 | 0.0 | 3.5 | 0.00 | 0.00 | 0.00 | 67 | 1015.2 |
| 20260901140128 | 53 | 291 | 0.9 | 3.5 | 0.00 | 0.00 | 0.00 | 65 | 1015.2 |
| 20260901135529 | 53 | 259 | 1.7 | 3.5 | 0.00 | 0.00 | 0.00 | 65 | 1015.2 |
| 20260901135028 | 52 | 0 | 0.0 | 1.7 | 0.00 | 0.00 | 0.00 | 66 | 1015.2 |
| 20260901134549 | 52 | 0 | 0.0 | 2.6 | 0.00 | 0.00 | 0.00 | 66 | 1015.2 |
| 20260901134031 | 51 | 0 | 0.9 | 2.6 | 0.00 | 0.00 | 0.00 | 66 | 1015.1 |
| 20260901133527 | 51 | 271 | 0.0 | 1.7 | 0.00 | 0.00 | 0.00 | 68 | 1015.0 |
| 20260901133046 | 51 | 271 | 0.0 | 1.7 | 0.00 | 0.00 | 0.00 | 70 | 1015.1 |
| 20260901132529 | 51 | 295 | 0.0 | 1.7 | 0.00 | 0.00 | 0.00 | 73 | 1015.0 |
| 20260901132031 | 51 | 0 | 0.0 | 2.6 | 0.00 | 0.00 | 0.00 | 72 | 1014.8 |
| 20260901131546 | 51 | 0 | 0.0 | 2.6 | 0.00 | 0.00 | 0.00 | 72 | 1014.9 |
| 20260901131028 | 51 | 295 | 0.9 | 2.6 | 0.00 | 0.00 | 0.00 | 69 | 1015.0 |
| 20260901130530 | 51 | 0 | 0.0 | 1.7 | 0.00 | 0.00 | 0.00 | 69 | 1015.0 |
| 20260901130051 | 51 | 0 | 0.9 | 2.6 | 0.00 | 0.00 | 0.00 | 69 | 1014.8 |
| 20260901125524 | 51 | 0 | 0.0 | 2.6 | 0.00 | 0.00 | 0.00 | 71 | 1014.8 |
| 20260901125025 | 51 | 293 | 0.0 | 2.6 | 0.00 | 0.00 | 0.00 | 70 | 1014.9 |
| 20260901124547 | 51 | 0 | 0.0 | 2.6 | 0.00 | 0.00 | 0.00 | 70 | 1014.8 |
| 20260901124030 | 51 | 295 | 0.0 | 2.6 | 0.00 | 0.00 | 0.00 | 70 | 1014.9 |
| 20260901123529 | 51 | 0 | 0.0 | 0.0 | 0.00 | 0.00 | 0.00 | 68 | 1015.2 |
| 20260901123045 | 51 | 0 | 0.0 | 0.0 | 0.00 | 0.00 | 0.00 | 66 | 1015.1 |
| 20260901122526 | 51 | 0 | 0.0 | 0.0 | 0.00 | 0.00 | 0.00 | 66 | 1015.1 |
| 20260901122027 | 51 | 0 | 0.0 | 1.7 | 0.00 | 0.00 | 0.00 | 67 | 1015.0 |
| 20260901121543 | 51 | 0 | 0.0 | 1.7 | 0.00 | 0.00 | 0.00 | 68 | 1015.0 |
| 20260901121029 | 51 | 0 | 0.0 | 1.7 | 0.00 | 0.00 | 0.00 | 69 | 1015.1 |
| 20260901120526 | 51 | 154 | 0.0 | 2.6 | 0.00 | 0.00 | 0.00 | 69 | 1015.1 |
| 20260901120052 | 51 | 0 | 0.0 | 4.3 | 0.00 | 0.00 | 0.00 | 70 | 1015.1 |
| 20260901115529 | 51 | 206 | 1.7 | 4.3 | 0.00 | 0.00 | 0.00 | 69 | 1015.1 |
| 20260901115024 | 51 | 216 | 0.0 | 1.7 | 0.00 | 0.00 | 0.00 | 69 | 1015.2 |
| 20260901114550 | 51 | 216 | 0.0 | 2.6 | 0.00 | 0.00 | 0.00 | 68 | 1015.1 |
| 20260901114028 | 51 | 216 | 0.9 | 2.6 | 0.00 | 0.00 | 0.00 | 68 | 1015.2 |
| 20260901113532 | 51 | 208 | 0.0 | 2.6 | 0.00 | 0.00 | 0.00 | 69 | 1015.1 |
| 20260901113045 | 51 | 209 | 0.0 | 2.6 | 0.00 | 0.00 | 0.00 | 69 | 1014.9 |
| 20260901112526 | 51 | 0 | 0.0 | 2.6 | 0.00 | 0.00 | 0.00 | 68 | 1014.8 |
| 20260901112025 | 50 | 219 | 0.9 | 2.6 | 0.00 | 0.00 | 0.00 | 68 | 1014.7 |
| 20260901111545 | 50 | 198 | 0.9 | 2.6 | 0.00 | 0.00 | 0.00 | 69 | 1014.9 |
| 20260901111028 | 50 | 205 | 0.9 | 3.5 | 0.00 | 0.00 | 0.00 | 69 | 1014.9 |
| 20260901110526 | 50 | 205 | 0.9 | 3.5 | 0.00 | 0.00 | 0.00 | 69 | 1014.8 |
| 20260901110052 | 50 | 207 | 0.9 | 3.5 | 0.00 | 0.00 | 0.00 | 69 | 1014.9 |
| 20260901105529 | 50 | 214 | 0.9 | 2.6 | 0.00 | 0.00 | 0.00 | 69 | 1014.8 |
| 20260901105026 | 50 | 204 | 0.0 | 2.6 | 0.00 | 0.00 | 0.00 | 70 | 1014.8 |
| 20260901104546 | 50 | 204 | 0.9 | 2.6 | 0.00 | 0.00 | 0.00 | 70 | 1014.7 |
| 20260901104028 | 50 | 203 | 0.9 | 3.5 | 0.00 | 0.00 | 0.00 | 71 | 1014.6 |
| 20260901103528 | 50 | 0 | 0.9 | 3.5 | 0.00 | 0.00 | 0.00 | 71 | 1014.8 |
| 20260901103044 | 50 | 0 | 0.0 | 2.6 | 0.00 | 0.00 | 0.00 | 71 | 1014.7 |
| 20260901102528 | 50 | 188 | 0.0 | 2.6 | 0.00 | 0.00 | 0.00 | 71 | 1014.8 |
| 20260901102025 | 49 | 0 | 0.0 | 0.0 | 0.00 | 0.00 | 0.00 | 71 | 1014.7 |
| 20260901101604 | 49 | 0 | 0.0 | 1.7 | 0.00 | 0.00 | 0.00 | 72 | 1014.7 |
| 20260901101024 | 50 | 0 | 0.0 | 1.7 | 0.00 | 0.00 | 0.00 | 72 | 1014.6 |
| 20260901100525 | 50 | 250 | 0.0 | 1.7 | 0.00 | 0.00 | 0.00 | 72 | 1014.6 |
| 20260901100051 | 50 | 0 | 0.0 | 3.5 | 0.00 | 0.00 | 0.00 | 72 | 1014.6 |
| 20260901095525 | 50 | 0 | 0.0 | 3.5 | 0.00 | 0.00 | 0.00 | 72 | 1014.7 |
| 20260901095027 | 50 | 250 | 0.9 | 3.5 | 0.00 | 0.00 | 0.00 | 73 | 1014.7 |
| 20260901094545 | 50 | 0 | 0.0 | 1.7 | 0.00 | 0.00 | 0.00 | 74 | 1014.7 |
| 20260901094029 | 50 | 0 | 0.0 | 1.7 | 0.00 | 0.00 | 0.00 | 74 | 1014.7 |
| 20260901093525 | 50 | 0 | 0.0 | 3.5 | 0.00 | 0.00 | 0.00 | 73 | 1014.7 |
| 20260901093050 | 50 | 205 | 1.7 | 3.5 | 0.00 | 0.00 | 0.00 | 71 | 1014.8 |
| 20260901092527 | 50 | 212 | 0.0 | 2.6 | 0.00 | 0.00 | 0.00 | 71 | 1014.7 |
| 20260901092028 | 50 | 0 | 0.0 | 0.9 | 0.00 | 0.00 | 0.00 | 71 | 1014.7 |
| 20260901091554 | 50 | 274 | 0.0 | 0.9 | 0.00 | 0.00 | 0.00 | 72 | 1014.7 |
| 20260901091025 | 50 | 0 | 0.0 | 1.7 | 0.00 | 0.00 | 0.00 | 72 | 1014.8 |
| 20260901090524 | 50 | 0 | 0.0 | 3.5 | 0.00 | 0.00 | 0.00 | 70 | 1014.8 |
| 20260901090046 | 50 | 274 | 0.9 | 3.5 | 0.00 | 0.00 | 0.00 | 69 | 1014.8 |
| 20260901085527 | 50 | 285 | 0.9 | 3.5 | 0.00 | 0.00 | 0.00 | 69 | 1014.8 |
| 20260901085027 | 51 | 309 | 0.0 | 2.6 | 0.00 | 0.00 | 0.00 | 69 | 1014.9 |
| 20260901084553 | 51 | 309 | 0.0 | 2.6 | 0.00 | 0.00 | 0.00 | 68 | 1015.0 |
| 20260901084025 | 52 | 242 | 0.0 | 1.7 | 0.00 | 0.00 | 0.00 | 68 | 1015.0 |
| 20260901083526 | 52 | 0 | 0.0 | 1.7 | 0.00 | 0.00 | 0.00 | 64 | 1015.1 |
| 20260901083047 | 52 | 0 | 0.0 | 1.7 | 0.00 | 0.00 | 0.00 | 64 | 1015.1 |
| 20260901082527 | 52 | 0 | 0.0 | 1.7 | 0.00 | 0.00 | 0.00 | 63 | 1015.0 |
| 20260901082028 | 52 | 0 | 0.0 | 1.7 | 0.00 | 0.00 | 0.00 | 62 | 1015.0 |
| 20260901081552 | 52 | 217 | 0.0 | 1.7 | 0.00 | 0.00 | 0.00 | 59 | 1015.0 |
| 20260901081025 | 53 | 217 | 0.0 | 1.7 | 0.00 | 0.00 | 0.00 | 60 | 1015.0 |
| 20260901080528 | 53 | 217 | 0.0 | 1.7 | 0.00 | 0.00 | 0.00 | 60 | 1015.0 |
| 20260901080141 | 53 | 0 | 0.0 | 1.7 | 0.00 | 0.00 | 0.00 | 58 | 1014.9 |
| 20260901075524 | 53 | 217 | 0.0 | 1.7 | 0.00 | 0.00 | 0.00 | 58 | 1014.9 |
| 20260901075026 | 53 | 0 | 0.0 | 1.7 | 0.00 | 0.00 | 0.00 | 56 | 1015.0 |
| 20260901074545 | 53 | 217 | 0.0 | 1.7 | 0.00 | 0.00 | 0.00 | 57 | 1015.0 |
| 20260901074027 | 53 | 217 | 0.0 | 2.6 | 0.00 | 0.00 | 0.00 | 57 | 1015.2 |
| 20260901073527 | 53 | 217 | 0.9 | 2.6 | 0.00 | 0.00 | 0.00 | 58 | 1015.2 |
| 20260901073045 | 53 | 206 | 0.9 | 2.6 | 0.00 | 0.00 | 0.00 | 60 | 1015.2 |
| 20260901072528 | 53 | 210 | 0.0 | 2.6 | 0.00 | 0.00 | 0.00 | 62 | 1015.3 |
| 20260901072026 | 53 | 210 | 0.9 | 3.5 | 0.00 | 0.00 | 0.00 | 62 | 1015.2 |
| 20260901071553 | 53 | 214 | 1.7 | 3.5 | 0.00 | 0.00 | 0.00 | 62 | 1015.2 |
| 20260901071031 | 53 | 205 | 2.6 | 3.5 | 0.00 | 0.00 | 0.00 | 64 | 1015.2 |
| 20260901070527 | 53 | 195 | 0.9 | 2.6 | 0.00 | 0.00 | 0.00 | 65 | 1015.2 |
| 20260901070048 | 52 | 207 | 0.9 | 3.5 | 0.00 | 0.00 | 0.00 | 67 | 1015.2 |
| 20260901065529 | 53 | 191 | 1.7 | 3.5 | 0.00 | 0.00 | 0.00 | 67 | 1015.3 |
| 20260901065024 | 53 | 200 | 0.9 | 2.6 | 0.00 | 0.00 | 0.00 | 67 | 1015.4 |
| 20260901064546 | 53 | 0 | 0.0 | 2.6 | 0.00 | 0.00 | 0.00 | 66 | 1015.4 |
| 20260901064025 | 53 | 200 | 0.9 | 2.6 | 0.00 | 0.00 | 0.00 | 66 | 1015.5 |
| 20260901063523 | 53 | 200 | 0.0 | 1.7 | 0.00 | 0.00 | 0.00 | 66 | 1015.6 |
| 20260901063058 | 53 | 0 | 0.0 | 0.0 | 0.00 | 0.00 | 0.00 | 66 | 1015.6 |
| 20260901062524 | 53 | 0 | 0.0 | 0.0 | 0.00 | 0.00 | 0.00 | 65 | 1015.6 |
| 20260901062027 | 53 | 0 | 0.0 | 1.7 | 0.00 | 0.00 | 0.00 | 64 | 1015.7 |
| 20260901061601 | 53 | 0 | 0.0 | 2.6 | 0.00 | 0.00 | 0.00 | 63 | 1015.7 |
| 20260901061024 | 53 | 236 | 0.0 | 2.6 | 0.00 | 0.00 | 0.00 | 63 | 1015.8 |
| 20260901060531 | 54 | 0 | 0.0 | 1.7 | 0.00 | 0.00 | 0.00 | 64 | 1015.7 |
| 20260901060045 | 54 | 223 | 0.9 | 1.7 | 0.00 | 0.00 | 0.00 | 64 | 1015.7 |
| 20260901055527 | 54 | 0 | 0.0 | 1.7 | 0.00 | 0.00 | 0.00 | 62 | 1015.7 |
| 20260901055027 | 54 | 0 | 0.0 | 1.7 | 0.00 | 0.00 | 0.00 | 60 | 1015.7 |
| 20260901054552 | 54 | 223 | 0.0 | 0.9 | 0.00 | 0.00 | 0.00 | 61 | 1015.5 |
| 20260901054025 | 55 | 0 | 0.0 | 1.7 | 0.00 | 0.00 | 0.00 | 59 | 1015.7 |
| 20260901053527 | 55 | 0 | 0.0 | 2.6 | 0.00 | 0.00 | 0.00 | 60 | 1015.6 |
| 20260901053049 | 55 | 0 | 0.0 | 2.6 | 0.00 | 0.00 | 0.00 | 59 | 1015.7 |
| 20260901052523 | 55 | 221 | 0.0 | 1.7 | 0.00 | 0.00 | 0.00 | 58 | 1015.5 |
| 20260901052030 | 56 | 0 | 0.0 | 0.0 | 0.00 | 0.00 | 0.00 | 60 | 1015.6 |
| 20260901051559 | 56 | 0 | 0.0 | 0.0 | 0.00 | 0.00 | 0.00 | 59 | 1015.6 |
| 20260901051029 | 56 | 0 | 0.0 | 0.0 | 0.00 | 0.00 | 0.00 | 59 | 1015.6 |
| 20260901050526 | 56 | 0 | 0.0 | 0.0 | 0.00 | 0.00 | 0.00 | 59 | 1015.7 |
| 20260901050052 | 56 | 0 | 0.0 | 0.0 | 0.00 | 0.00 | 0.00 | 58 | 1015.5 |
| 20260901045528 | 56 | 0 | 0.0 | 0.0 | 0.00 | 0.00 | 0.00 | 57 | 1015.6 |
| 20260901045026 | 57 | 0 | 0.0 | 0.0 | 0.00 | 0.00 | 0.00 | 57 | 1015.6 |
| 20260901044604 | 57 | 0 | 0.0 | 0.0 | 0.00 | 0.00 | 0.00 | 53 | 1015.6 |
| 20260901044025 | 57 | 0 | 0.0 | 0.9 | 0.00 | 0.00 | 0.00 | 52 | 1015.5 |
| 20260901043528 | 58 | 0 | 0.0 | 0.9 | 0.00 | 0.00 | 0.00 | 51 | 1015.8 |
| 20260901043047 | 58 | 0 | 0.0 | 0.9 | 0.00 | 0.00 | 0.00 | 51 | 1015.8 |
| 20260901042524 | 58 | 0 | 0.0 | 0.0 | 0.00 | 0.00 | 0.00 | 50 | 1015.7 |
| 20260901042024 | 58 | 0 | 0.0 | 0.0 | 0.00 | 0.00 | 0.00 | 48 | 1015.8 |
| 20260901041544 | 58 | 0 | 0.0 | 0.0 | 0.00 | 0.00 | 0.00 | 47 | 1016.0 |
| 20260901041028 | 58 | 0 | 0.0 | 0.0 | 0.00 | 0.00 | 0.00 | 47 | 1015.9 |
| 20260901040524 | 58 | 0 | 0.0 | 0.0 | 0.00 | 0.00 | 0.00 | 45 | 1015.9 |
| 20260901035524 | 59 | 0 | 0.0 | 0.0 | 0.00 | 0.00 | 0.00 | 47 | 1015.9 |
| 20260901035024 | 59 | 0 | 0.0 | 0.9 | 0.00 | 0.00 | 0.00 | 48 | 1015.8 |
| 20260901034551 | 60 | 0 | 0.0 | 0.9 | 0.00 | 0.00 | 0.00 | 47 | 1015.9 |
| 20260901034023 | 60 | 0 | 0.0 | 0.9 | 0.00 | 0.00 | 0.00 | 47 | 1015.8 |
| 20260901033524 | 60 | 0 | 0.0 | 1.7 | 0.00 | 0.00 | 0.00 | 50 | 1015.8 |
| 20260901033045 | 61 | 0 | 0.0 | 1.7 | 0.00 | 0.00 | 0.00 | 51 | 1015.7 |
| 20260901032524 | 61 | 51 | 0.0 | 1.7 | 0.00 | 0.00 | 0.00 | 49 | 1015.7 |
| 20260901032028 | 62 | 0 | 0.0 | 0.0 | 0.00 | 0.00 | 0.00 | 43 | 1015.6 |
| 20260901031545 | 62 | 0 | 0.0 | 0.0 | 0.00 | 0.00 | 0.00 | 44 | 1015.7 |
| 20260901031027 | 62 | 0 | 0.0 | 0.0 | 0.00 | 0.00 | 0.00 | 44 | 1015.6 |
| 20260901030524 | 62 | 0 | 0.0 | 0.0 | 0.00 | 0.00 | 0.00 | 42 | 1015.5 |
| 20260901030045 | 63 | 0 | 0.0 | 0.0 | 0.00 | 0.00 | 0.00 | 41 | 1015.4 |
| 20260901025527 | 63 | 0 | 0.0 | 0.0 | 0.00 | 0.00 | 0.00 | 42 | 1015.1 |
| 20260901025025 | 63 | 0 | 0.0 | 0.0 | 0.00 | 0.00 | 0.00 | 43 | 1015.1 |
| 20260901024558 | 63 | 0 | 0.0 | 0.0 | 0.00 | 0.00 | 0.00 | 43 | 1015.1 |
| 20260901024028 | 64 | 0 | 0.0 | 0.0 | 0.00 | 0.00 | 0.00 | 42 | 1015.1 |
| 20260901023526 | 64 | 0 | 0.0 | 0.0 | 0.00 | 0.00 | 0.00 | 43 | 1015.0 |
| 20260901023049 | 64 | 0 | 0.0 | 0.0 | 0.00 | 0.00 | 0.00 | 39 | 1015.2 |
| 20260901022531 | 65 | 0 | 0.0 | 0.0 | 0.00 | 0.00 | 0.00 | 41 | 1015.0 |
| 20260901022027 | 65 | 0 | 0.0 | 0.0 | 0.00 | 0.00 | 0.00 | 42 | 1015.0 |
| 20260901021604 | 66 | 0 | 0.0 | 0.0 | 0.00 | 0.00 | 0.00 | 41 | 1015.0 |
| 20260901021025 | 66 | 0 | 0.0 | 0.0 | 0.00 | 0.00 | 0.00 | 40 | 1015.2 |
| 20260901020527 | 67 | 0 | 0.0 | 0.0 | 0.00 | 0.00 | 0.00 | 39 | 1015.1 |
| 20260901020046 | 68 | 0 | 0.0 | 0.0 | 0.00 | 0.00 | 0.00 | 38 | 1015.0 |
| 20260901015523 | 69 | 0 | 0.0 | 0.0 | 0.00 | 0.00 | 0.00 | 36 | 1015.2 |
| 20260901015025 | 69 | 0 | 0.0 | 0.0 | 0.00 | 0.00 | 0.00 | 35 | 1015.2 |
| 20260901014546 | 70 | 0 | 0.0 | 0.0 | 0.00 | 0.00 | 0.00 | 36 | 1015.2 |
| 20260901014024 | 70 | 0 | 0.0 | 0.0 | 0.00 | 0.00 | 0.00 | 36 | 1015.2 |
| 20260901013527 | 71 | 0 | 0.0 | 0.0 | 0.00 | 0.00 | 0.00 | 37 | 1015.2 |
| 20260901013101 | 71 | 0 | 0.0 | 0.0 | 0.00 | 0.00 | 0.00 | 35 | 1015.2 |
| 20260901012528 | 72 | 0 | 0.0 | 0.0 | 0.00 | 0.00 | 0.00 | 34 | 1015.2 |
| 20260901012029 | 72 | 0 | 0.0 | 0.0 | 0.00 | 0.00 | 0.00 | 35 | 1015.1 |
| 20260901011545 | 73 | 0 | 0.0 | 0.0 | 0.00 | 0.00 | 0.00 | 35 | 1015.1 |
| 20260901011027 | 74 | 0 | 0.0 | 0.0 | 0.00 | 0.00 | 0.00 | 34 | 1015.1 |
| 20260901010525 | 75 | 0 | 0.0 | 0.0 | 0.00 | 0.00 | 0.00 | 33 | 1015.1 |
| 20260901010045 | 75 | 0 | 0.0 | 0.0 | 0.00 | 0.00 | 0.00 | 32 | 1015.0 |
| 20260901005524 | 76 | 0 | 0.0 | 0.0 | 0.00 | 0.00 | 0.00 | 31 | 1015.0 |
| 20260901005027 | 77 | 0 | 0.0 | 2.6 | 0.00 | 0.00 | 0.00 | 30 | 1014.9 |
| 20260901004548 | 78 | 0 | 0.0 | 2.6 | 0.00 | 0.00 | 0.00 | 29 | 1014.9 |
| 20260901004024 | 78 | 33 | 0.0 | 3.5 | 0.00 | 0.00 | 0.00 | 26 | 1014.9 |
| 20260901003524 | 79 | 0 | 0.9 | 5.2 | 0.00 | 0.00 | 0.00 | 25 | 1014.9 |
| 20260901003052 | 79 | 68 | 1.7 | 5.2 | 0.00 | 0.00 | 0.00 | 26 | 1015.0 |
| 20260901002526 | 79 | 30 | 2.6 | 5.2 | 0.00 | 0.00 | 0.00 | 23 | 1015.2 |
| 20260901002027 | 79 | 60 | 1.7 | 7.0 | 0.00 | 0.00 | 0.00 | 24 | 1015.2 |
| 20260901001546 | 79 | 20 | 3.5 | 7.0 | 0.00 | 0.00 | 0.00 | 24 | 1015.2 |
| 20260901001025 | 80 | 10 | 2.6 | 6.1 | 0.00 | 0.00 | 0.00 | 25 | 1015.1 |
| 20260901000524 | 80 | 37 | 2.6 | 6.1 | 0.00 | 0.00 | 0.00 | 21 | 1015.1 |
| 20260901000049 | 80 | 30 | 1.7 | 7.8 | 0.00 | 0.00 | 0.00 | 20 | 1015.3 |
| 20260831235525 | 80 | 28 | 3.5 | 7.8 | 0.00 | 0.00 | 0.00 | 20 | 1015.1 |
| 20260831235028 | 80 | 35 | 4.3 | 6.1 | 0.00 | 0.00 | 0.00 | 19 | 1015.3 |
| 20260831234544 | 80 | 25 | 1.7 | 7.0 | 0.00 | 0.00 | 0.00 | 22 | 1015.2 |
| 20260831234025 | 80 | 59 | 2.6 | 7.0 | 0.00 | 0.00 | 0.00 | 20 | 1015.4 |
| 20260831233528 | 80 | 30 | 3.5 | 7.0 | 0.00 | 0.00 | 0.00 | 22 | 1015.4 |
| 20260831233050 | 80 | 32 | 2.6 | 5.2 | 0.00 | 0.00 | 0.00 | 21 | 1015.5 |
| 20260831232526 | 80 | 41 | 2.6 | 6.1 | 0.00 | 0.00 | 0.00 | 21 | 1015.5 |
| 20260831232027 | 80 | 27 | 3.5 | 6.1 | 0.00 | 0.00 | 0.00 | 20 | 1015.6 |
| 20260831231603 | 80 | 52 | 1.7 | 5.2 | 0.00 | 0.00 | 0.00 | 21 | 1015.5 |